Overview Statistics Trail Chart Weather Telemetry Raw packets
 

This is the latest recevied weather packets stored in our database for station/object VO2AGO. If no packets are shown the sender has not sent any weather packets the latest 10 day(s).

<< 44 45 46 47 48 49 50 >>
Time Temp. Humidity Pressure Rain* Wind** Luminosity Snow
1777659201 6.67° C - - - 0 m/s 537 W/m² -
1777658751 6.67° C - - - 0 m/s 530 W/m² -
1777658301 6.67° C - - - 0 m/s 725 W/m² -
1777657851 6.11° C - - - 0 m/s 742 W/m² -
1777657401 6.11° C - - - 0 m/s 580 W/m² -
1777656951 6.67° C - - - 0 m/s 675 W/m² -
1777656503 6.11° C - - - 0 m/s 700 W/m² -
1777656051 6.67° C - - - 0 m/s 633 W/m² -
1777655600 6.67° C - - - 0 m/s 655 W/m² -
1777655151 7.78° C - - - 0 m/s 659 W/m² -
1777654701 7.78° C - - - 0 m/s 961 W/m² -
1777654251 7.78° C - - - 0 m/s 880 W/m² -
1777653801 7.22° C - - - 0 m/s 700 W/m² -
1777653351 7.22° C - - - 0 m/s 755 W/m² -
1777652901 7.22° C - - - 0 m/s 789 W/m² -
1777652451 7.22° C - - - 0 m/s 700 W/m² -
1777652002 7.78° C - - - 0 m/s 1026 W/m² -
1777651552 7.22° C - - - 0 m/s 1506 W/m² -
1777651101 7.22° C - - - 0 m/s 1369 W/m² -
1777650651 7.22° C - - - 0 m/s 1448 W/m² -
1777650201 7.22° C - - - 0 m/s 956 W/m² -
1777649751 7.22° C - - - 0 m/s 1415 W/m² -
1777649302 7.22° C - - - 0 m/s 1322 W/m² -
1777648851 7.22° C - - - 0 m/s 1059 W/m² -
1777648401 7.78° C - - - 0 m/s 1075 W/m² -

* Rain since midnight (hover to see other rain measurements)
** Current wind speed in m/s (hover to see current wind gust speed)